Weather History for KMDJ - August, 2014

Change the Weather History Date:

Tuesday, August 12, 2014

  Actual Average Record
Temperature  
Mean Temperature 84 °F -  
Max Temperature 86 °F - - ()
Min Temperature 82 °F - - ()
Cooling Degree Days 19    
Growing Degree Days 34 (Base 50)    
Moisture  
Dew Point 75 °F    
Average Humidity 70    
Maximum Humidity 79    
Minimum Humidity 62    
Precipitation  
Precipitation 0.00 in - - ()
Sea Level Pressure  
Sea Level Pressure 29.99 in    
Wind  
Wind Speed 13 mph (WNW)    
Max Wind Speed 21 mph    
Max Gust Speed 22 mph    
Visibility 10 miles    
Events      
Averages and records for this station are not official NWS values.
T = Trace of Precipitation, MM = Missing Value Source: NWS Daily Summary

Daily Weather History Graph

Daily Weather History Graph

Search for Another Location

Airport or City:

Trip Planner

Search our weather history database for the weather conditions in past years. The results will help you decide how hot, cold, wet, or windy it might be!

Date:

Astronomy

Aug. 12, 2014 Rise Set
Actual Time 6:26 AM CDT 7:41 PM CDT
Civil Twilight 6:01 AM CDT 8:06 PM CDT
Nautical Twilight 5:32 AM CDT 8:35 PM CDT
Astronomical Twilight 5:01 AM CDT 9:06 PM CDT
Moon 9:06 PM CDT (8/12) 8:29 AM CDT (8/12)
Length of Visible Light 14h 04m
Length of Day
13h 14m
Waning Gibbous, 94% of the Moon is Illuminated
Aug 12
Waning Gibbous
Aug 17
Last Quarter
Aug 25
New
Sep 2
First Quarter
Sep 8
Full

Hourly Weather History & Observations

Time (CDT) Temp. Heat Index Dew Point Humidity Pressure Visibility Wind Dir Wind Speed Gust Speed Precip Events Conditions
12:15 AM 86.0 °F 95.1 °F 75.2 °F 70% 30.01 in 10.0 mi SW 11.5 mph - N/A   Clear
12:35 AM 86.0 °F 95.1 °F 75.2 °F 70% 30.00 in 10.0 mi SW 12.7 mph - N/A   Clear
1:15 AM 86.0 °F 96.9 °F 77.0 °F 74% 30.00 in 10.0 mi SW 13.8 mph 20.7 mph N/A   Clear
1:35 AM 86.0 °F 96.9 °F 77.0 °F 74% 30.01 in 10.0 mi SW 16.1 mph - N/A   Partly Cloudy
1:55 AM 86.0 °F 95.1 °F 75.2 °F 70% 30.00 in 10.0 mi SW 18.4 mph - N/A   Scattered Clouds
2:15 AM 86.0 °F 95.1 °F 75.2 °F 70% 30.00 in 10.0 mi WSW 19.6 mph - N/A   Partly Cloudy
2:55 AM 86.0 °F 96.9 °F 77.0 °F 74% 30.00 in 10.0 mi WSW 13.8 mph - N/A   Scattered Clouds
3:35 AM 86.0 °F 95.1 °F 75.2 °F 70% 29.98 in 10.0 mi WSW 17.3 mph - N/A   Scattered Clouds
3:55 AM 86.0 °F 95.1 °F 75.2 °F 70% 29.98 in 10.0 mi WSW 16.1 mph 21.9 mph N/A   Partly Cloudy
4:15 AM 86.0 °F 95.1 °F 75.2 °F 70% 29.98 in 10.0 mi West 11.5 mph 18.4 mph N/A   Clear
4:35 AM 86.0 °F 95.1 °F 75.2 °F 70% 29.97 in 10.0 mi West 10.4 mph 19.6 mph N/A   Partly Cloudy
5:35 AM 86.0 °F 95.1 °F 75.2 °F 70% 29.97 in 10.0 mi WSW 10.4 mph - N/A   Partly Cloudy
5:55 AM 86.0 °F 96.9 °F 77.0 °F 74% 29.97 in 10.0 mi West 13.8 mph - N/A   Mostly Cloudy
6:15 AM 86.0 °F 96.9 °F 77.0 °F 74% 29.97 in 10.0 mi WNW 13.8 mph - N/A   Mostly Cloudy
6:35 AM 84.2 °F 94.1 °F 77.0 °F 79% 29.98 in 10.0 mi WNW 17.3 mph - N/A   Scattered Clouds
6:55 AM 84.2 °F 94.1 °F 77.0 °F 79% 29.98 in 10.0 mi NW 17.3 mph - N/A   Clear
7:15 AM 84.2 °F 94.1 °F 77.0 °F 79% 29.99 in 10.0 mi NW 18.4 mph - N/A   Clear
7:35 AM 82.4 °F 89.5 °F 75.2 °F 79% 30.00 in 10.0 mi NW 17.3 mph - N/A   Partly Cloudy
7:55 AM 82.4 °F 89.5 °F 75.2 °F 79% 30.00 in 10.0 mi NW 17.3 mph - N/A   Mostly Cloudy
8:15 AM 82.4 °F 89.5 °F 75.2 °F 79% 30.01 in 10.0 mi NW 17.3 mph - N/A   Scattered Clouds
8:35 AM 82.4 °F 88.2 °F 73.4 °F 74% 30.01 in 10.0 mi NW 17.3 mph - N/A   Scattered Clouds
8:55 AM 82.4 °F 87.2 °F 71.6 °F 70% 30.01 in 10.0 mi NW 18.4 mph - N/A   Clear
9:15 AM 82.4 °F 87.2 °F 71.6 °F 70% 30.02 in 10.0 mi NW 16.1 mph - N/A   Clear
9:35 AM 82.4 °F 87.2 °F 71.6 °F 70% 30.02 in 10.0 mi NW 16.1 mph - N/A   Clear
9:55 AM 82.4 °F 87.2 °F 71.6 °F 70% 30.03 in 10.0 mi NW 17.3 mph - N/A   Clear
10:15 AM 84.2 °F 89.6 °F 71.6 °F 66% 30.03 in 10.0 mi NNW 20.7 mph - N/A   Clear
10:35 AM 84.2 °F 89.6 °F 71.6 °F 66% 30.03 in 10.0 mi NW 16.1 mph - N/A   Clear
12:35 PM 84.2 °F 89.6 °F 71.6 °F 66% 30.02 in 10.0 mi NNW 11.5 mph - N/A   Clear
12:55 PM 84.2 °F 89.6 °F 71.6 °F 66% 30.02 in 10.0 mi NNW 11.5 mph - N/A   Clear
1:15 PM 84.2 °F 90.9 °F 73.4 °F 70% 30.02 in 10.0 mi NNW 9.2 mph - N/A   Clear
1:35 PM 84.2 °F 89.6 °F 71.6 °F 66% 30.02 in 10.0 mi NW 8.1 mph - N/A   Clear
1:55 PM 84.2 °F 90.9 °F 73.4 °F 70% 30.02 in 10.0 mi WNW 6.9 mph - N/A   Clear
2:15 PM 86.0 °F 91.8 °F 71.6 °F 62% 30.02 in 10.0 mi WNW 6.9 mph - N/A   Clear
3:15 PM 86.0 °F 93.4 °F 73.4 °F 66% 30.00 in 10.0 mi WNW 9.2 mph - N/A   Clear
3:35 PM 86.0 °F 93.4 °F 73.4 °F 66% 29.99 in 10.0 mi West 11.5 mph - N/A   Clear
3:55 PM 86.0 °F 95.1 °F 75.2 °F 70% 29.99 in 10.0 mi West 8.1 mph - N/A   Clear
4:15 PM 86.0 °F 95.1 °F 75.2 °F 70% 29.98 in 10.0 mi West 10.4 mph - N/A   Partly Cloudy
4:35 PM 86.0 °F 95.1 °F 75.2 °F 70% 29.97 in 10.0 mi Variable 6.9 mph 13.8 mph N/A   Partly Cloudy
4:55 PM 86.0 °F 95.1 °F 75.2 °F 70% 29.96 in 10.0 mi West 8.1 mph - N/A   Clear
5:15 PM 86.0 °F 95.1 °F 75.2 °F 70% 29.96 in 10.0 mi Variable 6.9 mph - N/A   Clear
5:35 PM 86.0 °F 95.1 °F 75.2 °F 70% 29.96 in 10.0 mi Variable 4.6 mph 12.7 mph N/A   Clear
5:55 PM 86.0 °F 95.1 °F 75.2 °F 70% 29.95 in 10.0 mi Variable 5.8 mph 13.8 mph N/A   Partly Cloudy
6:55 PM 86.0 °F 93.4 °F 73.4 °F 66% 29.95 in 10.0 mi West 8.1 mph - N/A   Clear
7:15 PM 86.0 °F 93.4 °F 73.4 °F 66% 29.95 in 10.0 mi WNW 9.2 mph - N/A   Partly Cloudy
7:35 PM 86.0 °F 93.4 °F 73.4 °F 66% 29.95 in 10.0 mi Variable 5.8 mph - N/A   Clear
7:55 PM 86.0 °F 93.4 °F 73.4 °F 66% 29.96 in 10.0 mi West 8.1 mph - N/A   Clear
8:15 PM 86.0 °F 93.4 °F 73.4 °F 66% 29.96 in 10.0 mi West 8.1 mph - N/A   Clear
8:35 PM 86.0 °F 93.4 °F 73.4 °F 66% 29.97 in 10.0 mi West 10.4 mph - N/A   Scattered Clouds
8:55 PM 86.0 °F 93.4 °F 73.4 °F 66% 29.97 in 10.0 mi West 10.4 mph - N/A   Scattered Clouds
9:15 PM 86.0 °F 95.1 °F 75.2 °F 70% 29.97 in 10.0 mi Variable 4.6 mph 11.5 mph N/A   Mostly Cloudy
9:35 PM 86.0 °F 95.1 °F 75.2 °F 70% 29.98 in 10.0 mi West 8.1 mph - N/A   Mostly Cloudy
9:55 PM 86.0 °F 95.1 °F 75.2 °F 70% 29.98 in - West 8.1 mph - N/A   Mostly Cloudy
10:15 PM 86.0 °F 95.1 °F 75.2 °F 70% 29.98 in 10.0 mi Variable 4.6 mph 12.7 mph N/A   Mostly Cloudy
10:35 PM 86.0 °F 95.1 °F 75.2 °F 70% 29.98 in 10.0 mi West 8.1 mph 15.0 mph N/A   Scattered Clouds
10:55 PM 86.0 °F 95.1 °F 75.2 °F 70% 29.99 in 10.0 mi West 10.4 mph - N/A   Scattered Clouds
11:15 PM 86.0 °F 96.9 °F 77.0 °F 74% 29.98 in 10.0 mi West 5.8 mph - N/A   Scattered Clouds
11:35 PM 86.0 °F 95.1 °F 75.2 °F 70% 29.98 in 10.0 mi West 10.4 mph - N/A   Clear
11:55 PM 86.0 °F 96.9 °F 77.0 °F 74% 29.99 in 10.0 mi Variable 5.8 mph 12.7 mph N/A   Partly Cloudy